Location: Newark
(51.0000°N, 11.4100°E)
Time: 05:29:43
(UTC+00:00)

Envisat - Visible Passes

Search period start: 17 October 2019 00:00
Search period end: 27 October 2019 00:00
Orbit: 764 x 766 km, 98.1° (Epoch: 16 October)

Date Brightness Start Highest point End Pass type
(mag) Time Alt. Az. Time Alt. Az. Time Alt. Az.
17 Oct 6.3 04:46:55 10° NE 04:49:26 14° E 04:51:57 10° ESE visible
17 Oct 4.2 17:44:04 10° S 17:48:56 46° W 17:53:51 10° NNW visible
18 Oct 3.0 17:06:59 10° SSE 17:12:04 90° SE 17:17:12 10° NNW visible
18 Oct 6.0 18:49:02 10° WSW 18:51:50 15° W 18:54:40 10° NW visible
19 Oct 5.9 05:11:21 10° NE 05:15:18 22° E 05:19:13 10° SE visible
19 Oct 5.1 18:10:15 10° SSW 18:14:38 29° W 18:19:03 10° NNW visible
20 Oct 6.6 04:36:42 10° ENE 04:38:00 11° E 04:39:17 10° E visible
20 Oct 3.7 17:32:38 10° S 17:37:37 57° W 17:42:39 10° NNW visible
21 Oct 3.0 16:55:45 10° SSE 17:00:49 75° ENE 17:05:55 10° NNW visible
21 Oct 5.8 18:36:58 10° SW 18:40:26 18° W 18:43:53 10° NW visible
22 Oct 6.1 05:00:26 10° NE 05:03:54 18° E 05:07:21 10° SE visible
22 Oct 4.7 17:58:39 10° SSW 18:03:16 35° W 18:07:56 10° NNW visible
23 Oct 3.4 17:21:16 10° S 17:26:20 69° WSW 17:31:26 10° NNW visible
23 Oct 6.2 19:05:03 10° W 19:06:19 11° W 19:07:36 10° WNW visible
24 Oct 3.0 16:44:34 10° SSE 16:49:34 62° ENE 16:54:36 10° N visible
24 Oct 5.5 18:25:07 10° SW 18:29:01 22° W 18:32:58 10° NW visible
25 Oct 6.2 04:49:38 10° NE 04:52:29 15° E 04:55:18 10° ESE visible
25 Oct 4.3 17:47:07 10° S 17:51:56 43° W 17:56:47 10° NNW visible
26 Oct 3.1 17:09:57 10° SSE 17:15:02 84° WSW 17:20:10 10° NNW visible
26 Oct 6.1 18:52:22 10° WSW 18:54:53 14° W 18:57:24 10° NW visible
